Location: Chrząstowo
(52.0654°N, 17.1290°E)
Time: 23:09:58
(UTC+02:00)

ISS - Pass Details

Date: 28 January 2019
Orbit: 411 x 421 km, 51.6° (Epoch: 21 October)

Event Time Altitude Azimuth Distance (km) Brightness Sun altitude
Rises 17:36:24 0° 242° (WSW) 2,409 2.1 -10.0°
Maximum altitude 17:41:56 53° 160° (SSE) 544 -3.2 -10.9°
Enters shadow 17:44:24 17° 87° (E) 1,185 -2.1 -11.2°
